Regional Weather Roundup
Issued by NWS

Home | Current Version | Previous Version | Text Only | Print | Product List | Glossary Off
Versions: 1 2 3 4 5 6 7 8 9 10 11 12 13 14 15 16 17 18 19 20 21 22 23 24 25 26 27

000
ASUS45 KBOU 021407
RWRCO

WEATHER ROUNDUP FOR COLORADO
NATIONAL WEATHER SERVICE DENVER/BOULDER CO
800 AM MDT MON MAY 02 2016

NOTE: "FAIR" INDICATES FEW OR NO CLOUDS BELOW 12000 FEET WITH NO
SIGNIFICANT WEATHER AND/OR OBSTRUCTIONS TO VISIBILITY.

COZ001>005-013-030-031-021500-
...NORTHWEST COLORADO...

CITY           SKY/WX    TMP DP  RH WIND       PRES   REMARKS
CRAIG          FAIR      34  26  72 CALM      30.29R
HAYDEN         CLOUDY    32  25  74 W5        30.27R WCI  27
MEEKER         CLOUDY    36  28  73 S3        30.27R
MOUNT WERNER   NOT AVBL
STEAMBOAT SPGS CLOUDY    33  24  70 CALM      30.27R
WALDEN         FAIR      25  19  80 CALM      30.30R
$$

COZ006>008-011-021500-
...WEST CENTRAL VALLEYS...

CITY           SKY/WX    TMP DP  RH WIND       PRES   REMARKS
GRAND JUNCTION CLOUDY    49  40  71 SE10      30.23R
MONTROSE       CLOUDY    42  39  89 CALM      30.27R
EAGLE          NOT AVBL
RIFLE          PTSUNNY   45  38  76 CALM      30.25R
DELTA          NOT AVBL
NUCLA          NOT AVBL
$$

COZ017>023-064>068-021500-
...SOUTHWEST COLORADO...

CITY           SKY/WX    TMP DP  RH WIND       PRES   REMARKS
DURANGO        FAIR      39  34  82 CALM      30.28R
CORTEZ         CLOUDY    41  35  79 CALM      30.27R
PAGOSA SPRINGS CLOUDY    34  34 100 CALM      30.29R
TELLURIDE      CLOUDY    31  31 100 CALM      30.31R
WOLF CREEK PAS FOG       23  23 100 W3        30.34R VSB 1/2
$$

COZ009-010-012-014-032>034-037-058>063-021500-
...CENTRAL COLORADO...

CITY           SKY/WX    TMP DP  RH WIND       PRES   REMARKS
ASPEN          PTSUNNY   37  28  70 CALM      30.25R
BUENA VISTA    FAIR      30  27  86 E3        30.28R
COPPER MTN     NOT AVBL
BERTHOUD PASS  PTSUNNY   16   7  67 MISG      30.29R
COTTONWOOD PAS FAIR      30  27  86 SE5       30.27R WCI  25
GUNNISON       CLOUDY    34  30  86 CALM      30.29S
KREMMLING      FAIR      30  23  74 CALM      30.32R
LEADVILLE      FAIR      24  18  77 N5        30.26R WCI  18
MONARCH PASS   FAIR      21  19  93 MISG      30.39R
SALIDA         FAIR      33  28  80 W3        30.35S
SUNLIGHT       CLOUDY    30  28  93 CALM      30.34R
WILKERSON PASS FAIR     N/A N/A N/A N9G17     30.28R
$$

COZ069>075-021500-
...SAN LUIS VALLEY/SANGRE DE CRISTO MOUNTAINS...

CITY           SKY/WX    TMP DP  RH WIND       PRES   REMARKS
ALAMOSA        CLOUDY    35  30  82 NE3       30.28R
LA VETA PASS   FOG       28  27  93 MISG      30.26R VSB 1/2
SAGUACHE       CLOUDY    34  30  86 CALM      30.29R
$$

COZ035-036-038>040-021500-
...NORTHERN COLORADO FRONT RANGE...

CITY           SKY/WX    TMP DP  RH WIND       PRES   REMARKS
DENVER INTL AP FAIR      35  27  72 SW7       30.26R WCI  29
DMNS CITY PARK   N/A     36  28  73 SE8       30.27R
AURORA         FAIR      32  28  84 SW8       30.27R WCI  25
FRONT RANGE AP SUNNY     34  28  80 SW7       30.27R WCI  28
ERIE MUNI ARPT FAIR      35  31  87 CALM      30.27R
BOULDER MUN AP FAIR      39  27  60 SW3       30.26S
CENTENNIAL     FAIR      33  27  78 CALM      30.26R
BROOMFIELD     SUNNY     36  30  80 SW5       30.27R
FORT COLLINS   FAIR      34  25  69 N5        30.28R WCI  30
LONGMONT       FAIR      41  28  59 CALM      30.28S
$$

COZ041-046-047-076>085-087-088-021500-
...PIKES PEAK/PALMER DIVIDE AND SOUTHERN FOOTHILLS...

CITY           SKY/WX    TMP DP  RH WIND       PRES   REMARKS
COLO. SPRINGS  FAIR      37  24  59 N5        30.27R
A. F. ACADEMY  FAIR      27  21  80 N3        30.26R
SCHRIEVER AFB  NOT AVBL
ELLICOTT       NOT AVBL
FALCON         FAIR      34  22  63 CALM      30.27R
FORT CARSON    FAIR      36  27  70 N7        30.26R
LIMON          FAIR      28  24  85 NW6       30.27R WCI  22
MONUMENT HILL  FAIR      25  19  80 SW3       30.27R
TRINIDAD       CLOUDY    38  32  79 SW10      30.27R
$$

COZ042>045-048>051-090-091-021500-
...NORTHEAST COLORADO...

CITY           SKY/WX    TMP DP  RH WIND       PRES   REMARKS
GREELEY ARPT   FAIR      34  28  80 NW3       30.28S
AKRON          FAIR      33  28  81 W14       30.24S WCI  23
BURLINGTON     FAIR      39  31  72 W8        30.25R
WRAY           NOT AVBL
STERLING       FAIR      34  32  93 SW6       30.24S WCI  29
HOLYOKE        NOT AVBL
FORT MORGAN    FAIR      32  29  88 W12       30.26S WCI  23
$$

COZ086-089-092>099-021500-
...SOUTHEAST COLORADO...

CITY           SKY/WX    TMP DP  RH WIND       PRES   REMARKS
PUEBLO         FAIR      38  32  79 CALM      30.27S
LA JUNTA       FAIR      39  34  82 W10       30.28R
LAMAR          FAIR      39  33  79 W6        30.26R
SPRINGFIELD      N/A     40  34  79 NW14      30.25S
$$




USA.gov is the U.S. government's official web portal to all federal, state and local government web resources and services.